sat.trackr.live / text

‹ back to catalog

STARLINK-31876

NORAD 59938 · 2024-106S

PAYLOAD ACTIVE UNKNOWN

§ Identity

Operator
Country
US
Launch date
2024-06-01
Launch site
AFETR
Launch vehicle
Mass (kg)
RCS (m²)

Purposes: comms

External: N2YO · Heavens-Above · Gunter

§ Orbital elements

Epoch: 2026-05-24T17:35:39.562656Z

Period
94.27 min
Inclination
43.0017°
Eccentricity
0.0000948
Mean motion
15.27562813 rev/d
Perigee alt
482.5 km
Apogee alt
483.8 km
Semi-major
6,861.2 km
B*
2.2811e-5
RAAN
262.9868°
Arg perigee
256.8115°
Mean anomaly
103.2631°
Rev number
11,216

§ Raw data

STARLINK-318761 59938U 24106S   26144.73309679  .00000366  00000+0  22811-4 0  99902 59938  43.0017 262.9868 0000948 256.8115 103.2631 15.27562813112168

JSON: /api/v1/satellites/59938 · /tle

For live sub-satellite position, see the globe view (requires WebGL).

§ Visibility from observer

Set your observer location to see the next 7 days of passes ≥ 10°. The values pass through the URL so the page stays shareable.

No JS? Fill the form by hand. The geolocation button needs JavaScript.